Pleasantville, NJ

10:51 AM EST on February 20, 2017 (GMT -0500)
Atlantic City International

Weather History for KACY - July, 2014

Change the Weather History Date:

Monday, July 7, 2014

  Actual Average Record
Temperature  
Mean Temperature 80 °F 76 °F  
Max Temperature 91 °F 85 °F 100 °F (2012)
Min Temperature 69 °F 67 °F 47 °F (1980)
Degree Days  
Heating Degree Days 0 0  
Month to date heating degree days 0 0  
Since 1 June heating degree days 10 27  
Since 1 July heating degree days 0 0  
Cooling Degree Days 15 11  
Month to date cooling degree days 80 74  
Year to date cooling degree days 312 341  
Since 1 June cooling degree days 276 277  
Growing Degree Days 30 (Base 50)    
Moisture  
Dew Point 65 °F    
Average Humidity 63    
Maximum Humidity 84    
Minimum Humidity 41    
Precipitation  
Precipitation 0.00 in 0.11 in 1.24 in (1984)
Month to date precipitation 1.71 0.79  
Year to date precipitation 23.43 21.18  
Snow  
Snow 0.00 in 0.00 in T in (1991)
Month to date snowfall 0.0 0.0  
Since 1 June snowfall 0.0 0.0  
Since 1 July snowfall 0.0 0.0  
Snow Depth 0.00 in    
Sea Level Pressure  
Sea Level Pressure 29.88 in    
Wind  
Wind Speed 11 mph (SSW)    
Max Wind Speed 22 mph    
Max Gust Speed 28 mph    
Visibility 10 miles    
Events      
T = Trace of Precipitation, MM = Missing Value Source: NWS Daily Summary

Daily Weather History Graph

Daily Weather History Graph

Search for Another Location

Airport or City:

Trip Planner

Search our weather history database for the weather conditions in past years. The results will help you decide how hot, cold, wet, or windy it might be!

Date:

Astronomy

Jul. 07, 2014 Rise Set
Actual Time 5:38 AM EDT 8:28 PM EDT
Civil Twilight 5:06 AM EDT 9:00 PM EDT
Nautical Twilight 4:25 AM EDT 9:40 PM EDT
Astronomical Twilight 3:39 AM EDT 10:26 PM EDT
Moon 3:29 PM EDT (7/7) 1:29 AM EDT (7/7)
Length of Visible Light 15h 53m
Length of Day
14h 49m
Waxing Gibbous, 72% of the Moon is Illuminated
Jul 7
Waxing Gibbous
Jul 12
Full
Jul 18
Last Quarter
Jul 26
New
Aug 3
First Quarter

Hourly Weather History & Observations

Time (EDT) Temp. Heat Index Dew Point Humidity Pressure Visibility Wind Dir Wind Speed Gust Speed Precip Events Conditions
12:54 AM 70.0 °F - 62.1 °F 76% 29.98 in 10.0 mi North - - N/A   Clear
1:54 AM 69.1 °F - 63.0 °F 81% 29.96 in 10.0 mi SSW 9.2 mph - N/A   Clear
2:54 AM 69.1 °F - 63.0 °F 81% 29.94 in 10.0 mi SSW 9.2 mph - N/A   Clear
3:54 AM 70.0 °F - 64.0 °F 81% 29.93 in 10.0 mi SSW 8.1 mph - N/A   Mostly Cloudy
4:54 AM 70.0 °F - 64.0 °F 81% 29.92 in 10.0 mi South 6.9 mph - N/A   Mostly Cloudy
5:54 AM 70.0 °F - 64.0 °F 81% 29.92 in 10.0 mi SSW 8.1 mph - N/A   Overcast
6:54 AM 72.0 °F - 64.9 °F 78% 29.92 in 10.0 mi SSW 6.9 mph - N/A   Overcast
7:54 AM 73.9 °F - 64.9 °F 73% 29.93 in 10.0 mi SW 9.2 mph - N/A   Overcast
8:54 AM 75.0 °F - 64.9 °F 71% 29.93 in 10.0 mi SW 9.2 mph - N/A   Scattered Clouds
9:54 AM 79.0 °F - 66.9 °F 66% 29.91 in 10.0 mi SW 9.2 mph - N/A   Partly Cloudy
10:54 AM 84.0 °F 86.5 °F 66.9 °F 56% 29.91 in 10.0 mi WSW 8.1 mph - N/A   Clear
11:54 AM 87.1 °F 89.2 °F 66.0 °F 49% 29.90 in 10.0 mi SW 12.7 mph - N/A   Clear
12:54 PM 89.1 °F 90.3 °F 64.0 °F 43% 29.87 in - SW 15.0 mph 19.6 mph N/A   Clear
1:54 PM 90.0 °F 90.6 °F 63.0 °F 40% 29.86 in 10.0 mi SW 16.1 mph - N/A   Clear
2:54 PM 90.0 °F 91.3 °F 64.0 °F 42% 29.85 in 10.0 mi WSW 13.8 mph 20.7 mph N/A   Clear
3:54 PM 91.0 °F 92.6 °F 64.0 °F 41% 29.83 in 10.0 mi SSW 13.8 mph 23.0 mph N/A   Clear
4:54 PM 90.0 °F 90.6 °F 63.0 °F 40% 29.83 in 10.0 mi SW 17.3 mph 27.6 mph N/A   Clear
5:05 PM 89.1 °F 91.0 °F 64.9 °F 45% 29.82 in 10.0 mi SSW 17.3 mph 25.3 mph N/A   Partly Cloudy
5:54 PM 88.0 °F 90.3 °F 66.0 °F 48% 29.81 in 10.0 mi SSW 13.8 mph - N/A   Clear
6:54 PM 87.1 °F 88.9 °F 64.9 °F 48% 29.82 in 10.0 mi SSW 12.7 mph 20.7 mph N/A   Clear
7:54 PM 82.9 °F 85.4 °F 66.9 °F 58% 29.83 in 10.0 mi SSW 9.2 mph - N/A   Clear
8:54 PM 79.0 °F - 68.0 °F 69% 29.84 in 10.0 mi South 8.1 mph - N/A   Clear
9:54 PM 77.0 °F - 68.0 °F 74% 29.86 in 10.0 mi South 5.8 mph - N/A   Clear
10:54 PM 77.0 °F - 69.1 °F 76% 29.85 in 10.0 mi SSW 8.1 mph - N/A   Clear
11:54 PM 77.0 °F - 69.1 °F 76% 29.85 in 10.0 mi North - - N/A   Clear